Location: Dehesa de la Cepeda
(40.6574°N, 4.3013°W)
Time: 02:44:50
(UTC+00:00)

Courier 1B - Pass Details

Date: 02 August 2021
Orbit: 963 x 1209 km, 28.3° (Epoch: 17 September)

Event Time Altitude Azimuth Distance (km) Brightness Sun altitude
Rises 00:18:37 0° 258° (WSW) 4,012 10.6 -31.6°
Enters shadow 00:18:39 - 258° (WSW) 4,001 10.6 -31.6°
Reaches altitude 10° 00:23:08 10° 234° (SW) 2,996 - -31.6°
Maximum altitude 00:26:32 14° 206° (SSW) 2,676 - -31.6°
Drops below altitude 10° 00:29:52 10° 178° (S) 2,905 - -31.6°
Sets 00:34:08 0° 154° (SSE) 3,799 - -31.5°
